2025-007B

Last updated on Tue Jan 14 2025 00:02:05 GMT+0000 (Coordinated Universal Time)

1 62576U 25007B 25013.45925260 -.00000211 00000+0 00000+0 0 9997 2 62576 54.9807 126.8719 0013068 296.5653 159.1500 14.75587883 40
UTC large
Height (km)
Speed (km/s)
/
Latitude / Longitude
Inclination (degrees)
Orbital Period (minutes)
Azimuth
Elevation
Range (km)
Doppler Factor

Next 0 passes for location: London (51.5072 / 0.1276)

Sorry there are no passes over London.